Location: C�mpuri de-Sus
(45.9500°N, 22.5500°E)
Time: 06:13:18
(UTC+00:00)

Feng Yun 1-1 Rocket - Pass Details

Date: 24 October 2021
Orbit: 830 x 933 km, 99.2° (Epoch: 04 December)

Event Time Altitude Azimuth Distance (km) Brightness Sun altitude
Rises 16:39:50 0° 152° (SSE) 3,423 7.1 -13.1°
Reaches altitude 10° 16:42:11 10° 149° (SSE) 2,504 6.4 -13.5°
Maximum altitude 16:47:40 62° 70° (ENE) 995 4.3 -14.4°
Drops below altitude 10° 16:53:20 10° 351° (N) 2,589 6.8 -15.4°
Sets 16:55:48 0° 348° (NNW) 3,549 7.6 -15.8°
